Regional Weather Roundup
Issued by NWS Newport/Morehead, NC

Current Version | Previous Version | Graphics & Text | Print | Product List | Glossary Off
Versions: 1 2 3 4 5 6 7 8 9 10 11 12 13 14 15 16 17 18 19 20 21 22 23 24 25 26 27 28 29 30 31 32 33 34 35 36 37 38 39 40 41 42 43 44 45 46 47 48 49 50

000
ASUS42 KMHX 020625
RWRMHX
WEATHER ROUNDUP FOR EASTERN NORTH CAROLINA
NATIONAL WEATHER SERVICE NEWPORT/MOREHEAD CITY NC
200 AM EDT TUE JUN 02 2015

NOTE: "FAIR" INDICATES FEW OR NO CLOUDS BELOW 12,000 FEET
WITH NO SIGNIFICANT WEATHER AND/OR OBSTRUCTIONS TO VISIBILITY

NCZ015>017-031-032-045>047-102-103-020700-
NORTH COAST

CITY           SKY/WX    TMP DP  RH WIND       PRES   REMARKS
EDENTON        CLOUDY    74  68  83 S8        30.03F
ELIZABETH CITY PTCLDY    73  69  87 S8        30.03F
KITTY HAWK     CLEAR     74  69  83 SW6       30.04S
MANTEO         CLEAR     74  69  84 SW8       30.05S

$$

NCZ045>047-081-094-103-104-020700-
CENTRAL COAST

CITY           SKY/WX    TMP DP  RH WIND       PRES   REMARKS
FRISCO         CLEAR     76  68  76 SW7       30.05F
SWANQUARTER      N/A     77 N/A N/A SW13G18   30.00S

$$

NCZ095-097-098-100-101-020700-
SOUTHERN COAST

CITY           SKY/WX    TMP DP  RH WIND       PRES   REMARKS
BEAUFORT       MOCLDY    76  70  82 S9        30.05S
CEDAR ISLAND     N/A     72 N/A N/A SW1       30.09S
JACKSONVILLE   CLEAR     71  68  90 CALM      30.03F
PINEY ISLAND   PTCLDY   N/A N/A N/A SW5       30.05
WILMINGTON     CLEAR     73  69  87 S3        30.03F


$$

NCZ011>013-027>030-043-044-078>080-089-090>093-098-020700-
COASTAL PLAIN

CITY           SKY/WX    TMP DP  RH WIND       PRES   REMARKS
AHOSKIE        MOCLDY    70  65  84 CALM      30.03S
CLINTON        PTCLDY    73  71  93 S3        30.03F
ELIZABETHTOWN  PTCLDY    72  70  93 CALM      30.03S
GOLDSBORO      MOCLDY    72  69  89 CALM      30.00F
GREENVILLE     PTCLDY    72  70  94 S5        30.05S
HAVELOCK       MOCLDY    69  66  90 E3        30.05F
KENANSVILLE    PTCLDY    70  68  91 CALM      30.04F
KINSTON        CLEAR     71  68  91 S5        30.03F
NEW BERN       PTCLDY    69  66  90 CALM      30.05F
RICHLANDS      CLEAR     66  63  88 S3        30.04F
ROCKY MOUNT    MOCLDY    70  69  97 CALM      30.02F
WASHINGTON     MOCLDY    72  68  88 S5        30.03F
WHITEVILLE     PTCLDY    72  69  90 CALM      30.03S

$$

AMZ130-135-150-152-154-156-158-170-250-252-270-ANZ085-086-088-633-658-670-020700-
MARINE OBSERVATIONS

STATION/POSITION TIME  TEMP    WIND        PRES    WAVE   SWELL
                       AIR SEA DIR/SP/G            HT/PER HT/PER
                 (UTC) (F)     (DEG/KT/KT) (MB)    (FT/S) (FT/S)
CHESAPEAKE LIGHT 0600   69      40/  7/  8 1018.0
64 E VA BEACH    0550   74 72  210/ 10/ 10 1017.0    3/ 8   3/ 8
DUCK             0500   76 55  200/ 11/ 13 1016.2
2 E DUCK         0511      61                N/A     2/ 8
OREGON INLET     0500   77 77  200/ 11/ 14 1017.4
13E OREGON INLT  0600      76                N/A     3/ 8
HATTERAS CG      0500   76 80  200/  6/  9 1017.3
DIAMOND BUOY     0550   77 79  180/ 14/ 16 1017.4    3/ 8   3/ 8
CAPE LOOKOUT     0600   76     210/  6/  8 1017.3
BEAUFORT LAB     0500   77 78  200/  9/ 12 1016.7
30 SE NEW RVR IN 0508   77 77  200/  8/ 12 1018.0
27 SE WRIGHTSVLE 0600      77  250/  8/ 10   N/A
5 SE WRIGHTSVLE  0508   78 79  230/ 12/ 16 1017.4
225 S CAPE HAT   0550   76 76  240/  2/  2 1018.2    4/ 8   3/ 8
41 SE CHARLESTON 0550   80 80  200/  8/ 10 1016.8    3/ 8   3/ 8

$$



USA.gov is the U.S. government's official web portal to all federal, state and local government web resources and services.